Location: Br�znic
(45.9167°N, 22.6500°E)
Time: 07:22:23
(UTC+00:00)

GP-B - Pass Details

Date: 03 March 2021
Orbit: 631 x 634 km, 89.8° (Epoch: 10 April)

Event Time Altitude Azimuth Distance (km) Brightness Sun altitude
Rises 17:43:56 0° 175° (S) 2,917 6.4 -15.6°
Reaches altitude 10° 17:46:09 10° 174° (S) 2,014 5.6 -16.0°
Maximum altitude 17:50:35 84° 86° (E) 646 3.0 -16.7°
Drops below altitude 10° 17:55:03 10° 360° (N) 2,031 5.8 -17.5°
Sets 17:57:17 0° 360° (N) 2,945 6.7 -17.9°
